Tracking 27420 objects as of 28-May-2023
HD Live streaming from Space Station
objects crossing your sky now

CZ-4 DEB

Track CZ-4 DEB now!
10-day predictions


NORAD ID: 37609
Int'l Code: 1990-081CV
Perigee: 825.7 km
Apogee: 923.3 km
Inclination: 98.8 °
Period: 102.3 minutes
Semi major axis: 7245 km
RCS: 0.0032 m2 (small)
Launch date: September 3, 1990
Source: People's Republic of China (PRC)
Launch site: Taiyaun Space Center, China (TSC)

Note: This is SATELLITE DEBRIS
Your satellite tracking list
Your tracking list is empty




NASA's NSSDC Master Catalog

Two Line Element Set (TLE):
1 37609U 90081CV  23147.70130216  .00000451  00000-0  28658-3 0  9992
2 37609  98.7974 132.4482 0067335 354.7296 180.3110 14.07661830995514
Source of the keplerian elements: AFSPC